Location: Newark
(39.0622°N, 106.5590°E)
Time: 15:26:39
(UTC+00:00)

Courier 1B - Pass Details

Date: 02 February 2020
Orbit: 962 x 1209 km, 28.3° (Epoch: 17 February)

Event Time Altitude Azimuth Distance (km) Brightness Sun altitude
Rises 21:37:01 0° 259° (WSW) 3,821 - -27.9°
Reaches altitude 10° 21:40:57 10° 238° (WSW) 2,917 - -27.1°
Maximum altitude 21:44:53 16° 204° (SSW) 2,572 - -26.4°
Exits shadow 21:45:07 16° 202° (SSW) 2,576 9.5 -26.3°
Drops below altitude 10° 21:48:57 10° 170° (S) 3,014 10.2 -25.6°
Sets 21:53:09 0° 150° (SSE) 4,019 11.1 -24.7°
